Date String (YYYY-MM-DD hh:mm:ss) UTC,Instrument flags,Ambient pressure (hPa),Sample flow (lpm),Bypass flow (lpm),Sample temperature (°C),Ambient temperature (°C),ASC tube jacket temperature (°C),LED temperature (°C),Box temperature (°C),Sample RH (%),Span deviation,Mass concentration (μg/m³),Mass concentration (μg/m³),Mass concentration (μg/m³)
DateTimeUTC,F1_M11,P_M11,Q1_M11,Q2_M11,T1_M11,T2_M11,T3_M11,T4_M11,T5_M11,U1_M11,ZSPAN_M11,X0_M11,X2_M11,X1_M11
2021-11-12 22:00:00,,0830.8,5.01,0.00,26.4,25.7,00.0,35.3,28.2,10.8,0000.0,0013.95,0004.27,0003.14
2021-11-12 22:01:00,,0830.8,4.99,0.00,26.4,25.7,00.0,35.3,28.3,10.8,0000.0,0013.98,0004.15,0003.13
2021-11-12 22:02:00,,0830.7,5.01,0.00,26.4,25.7,00.0,35.3,28.3,10.8,0000.0,0015.17,0004.13,0003.11
2021-11-12 22:03:00,,0830.8,5.01,0.00,26.4,25.8,00.0,35.3,28.3,10.8,0000.0,0016.74,0004.14,0003.12
2021-11-12 22:04:00,,0830.8,4.98,0.00,26.4,25.8,00.0,35.3,28.3,10.8,0000.0,0017.44,0004.18,0003.11
2021-11-12 22:05:00,,0830.7,5.02,0.00,26.4,25.8,00.0,35.3,28.3,10.8,0000.0,0017.08,0004.18,0003.10
2021-11-12 22:06:00,,0830.8,4.99,0.00,26.4,25.8,00.0,35.3,28.3,10.7,0000.0,0015.61,0004.11,0003.09
2021-11-12 22:07:00,,0830.8,5.00,0.00,26.5,25.8,00.0,35.4,28.3,10.8,0000.0,0015.44,0004.03,0003.04
2021-11-12 22:08:00,,0830.8,5.01,0.00,26.5,25.8,00.0,35.4,28.3,10.7,0000.0,0016.21,0003.99,0003.02
2021-11-12 22:09:00,,0830.8,5.00,0.00,26.5,25.8,00.0,35.4,28.4,10.7,0000.0,0016.72,0003.93,0003.01
2021-11-12 22:10:00,,0830.7,5.00,0.00,26.5,25.9,00.0,35.4,28.4,10.7,0000.0,0016.44,0003.87,0003.00
2021-11-12 22:11:00,,0830.7,5.01,0.00,26.5,25.9,00.0,35.4,28.4,10.7,0000.0,0016.81,0003.89,0003.01
2021-11-12 22:12:00,,0830.8,4.99,0.00,26.5,25.9,00.0,35.4,28.4,10.7,0000.0,0016.99,0003.94,0003.01
2021-11-12 22:13:00,,0830.8,5.00,0.00,26.5,25.9,00.0,35.4,28.4,10.7,0000.0,0015.96,0003.95,0003.01
2021-11-12 22:14:00,,0830.8,5.00,0.00,26.5,25.9,00.0,35.4,28.4,10.7,0000.0,0015.51,0003.91,0002.98
2021-11-12 22:15:00,,0830.8,5.00,0.00,26.5,25.9,00.0,35.4,28.4,10.6,0000.0,0014.65,0003.90,0002.98
2021-11-12 22:16:00,,0830.9,5.02,0.00,26.6,25.9,00.0,35.5,28.4,10.7,0000.0,0015.38,0003.88,0002.97
2021-11-12 22:17:00,,0830.9,4.99,0.00,26.6,25.9,00.0,35.5,28.4,10.7,0000.0,0015.62,0003.87,0002.98
2021-11-12 22:18:00,,0830.9,5.00,0.00,26.6,25.9,00.0,35.5,28.5,10.7,0000.0,0017.02,0003.91,0002.99
2021-11-12 22:19:00,,0830.8,5.01,0.00,26.6,26.0,00.0,35.5,28.5,10.6,0000.0,0016.55,0003.97,0002.99
2021-11-12 22:20:00,,0830.8,4.99,0.00,26.6,26.0,00.0,35.5,28.5,10.6,0000.0,0015.83,0003.99,0002.99
2021-11-12 22:21:00,,0830.8,5.01,0.00,26.6,26.0,00.0,35.5,28.5,10.6,0000.0,0015.56,0004.07,0003.00
2021-11-12 22:22:00,,0830.8,4.99,0.00,26.7,26.0,00.0,35.5,28.5,10.6,0000.0,0015.04,0004.09,0003.01
2021-11-12 22:23:00,,0830.9,4.99,0.00,26.7,26.0,00.0,35.6,28.6,10.6,0000.0,0014.77,0004.05,0003.01
2021-11-12 22:24:00,,0830.9,5.01,0.00,26.7,26.0,00.0,35.6,28.6,10.6,0000.0,0016.59,0004.01,0003.01
2021-11-12 22:25:00,,0830.9,4.99,0.00,26.7,26.1,00.0,35.6,28.6,10.6,0000.0,0016.08,0003.99,0003.02
2021-11-12 22:26:00,,0830.9,5.01,0.00,26.7,26.1,00.0,35.6,28.6,10.6,0000.0,0016.29,0003.97,0003.02
2021-11-12 22:27:00,,0830.9,5.01,0.00,26.7,26.1,00.0,35.6,28.6,10.6,0000.0,0015.54,0003.99,0003.02
2021-11-12 22:28:00,,0830.9,4.99,0.00,26.8,26.1,00.0,35.6,28.6,10.5,0000.0,0015.57,0004.00,0003.01
2021-11-12 22:29:00,,0830.9,5.01,0.00,26.8,26.1,00.0,35.6,28.7,10.5,0000.0,0014.03,0004.01,0003.02
2021-11-12 22:30:00,,0830.9,4.99,0.00,26.8,26.1,00.0,35.6,28.7,10.5,0000.0,0014.07,0004.02,0003.03
2021-11-12 22:31:00,,0830.9,5.00,0.00,26.8,26.1,00.0,35.7,28.7,10.6,0000.0,0014.65,0004.03,0003.04
2021-11-12 22:32:00,,0830.9,5.01,0.00,26.8,26.2,00.0,35.7,28.7,10.5,0000.0,0014.43,0004.03,0003.06
2021-11-12 22:33:00,,0830.9,4.99,0.00,26.8,26.2,00.0,35.7,28.7,10.5,0000.0,0014.81,0004.04,0003.06
2021-11-12 22:34:00,,0830.9,5.00,0.00,26.9,26.2,00.0,35.7,28.8,10.5,0000.0,0014.92,0004.06,0003.08
2021-11-12 22:35:00,,0830.9,5.01,0.00,26.9,26.2,00.0,35.7,28.8,10.5,0000.0,0013.29,0004.09,0003.09
2021-11-12 22:36:00,,0830.8,4.99,0.00,26.9,26.2,00.0,35.7,28.8,10.5,0000.0,0012.96,0004.13,0003.09
2021-11-12 22:37:00,,0830.7,5.01,0.00,26.9,26.2,00.0,35.8,28.8,10.5,0000.0,0012.65,0004.17,0003.10
2021-11-12 22:38:00,,0830.8,4.99,0.00,26.9,26.2,00.0,35.8,28.8,10.5,0000.0,0012.76,0004.15,0003.10
2021-11-12 22:39:00,,0830.8,4.99,0.00,26.9,26.2,00.0,35.8,28.8,10.5,0000.0,0013.46,0004.18,0003.10
2021-11-12 22:40:00,,0830.9,5.00,0.00,26.9,26.2,00.0,35.8,28.8,10.5,0000.0,0014.39,0004.15,0003.08
2021-11-12 22:41:00,,0830.9,5.00,0.00,26.9,26.2,00.0,35.8,28.8,10.5,0000.0,0014.99,0004.13,0003.09
2021-11-12 22:42:00,,0830.9,5.01,0.00,26.9,26.2,00.0,35.8,28.8,10.5,0000.0,0014.39,0004.12,0003.11
2021-11-12 22:43:00,,0830.9,5.00,0.00,26.9,26.2,00.0,35.8,28.8,10.5,0000.0,0014.37,0004.11,0003.11
2021-11-12 22:44:00,,0831.0,4.99,0.00,26.9,26.2,00.0,35.8,28.8,10.5,0000.0,0013.79,0004.06,0003.09
2021-11-12 22:45:00,,0830.9,5.00,0.00,26.9,26.2,00.0,35.8,28.8,10.5,0000.0,0013.58,0004.07,0003.10
2021-11-12 22:46:00,,0830.9,5.00,0.00,27.0,26.2,00.0,35.8,28.8,10.5,0000.0,0013.35,0004.12,0003.10
2021-11-12 22:47:00,,0830.9,5.00,0.00,27.0,26.2,00.0,35.9,28.8,10.5,0000.0,0012.99,0004.14,0003.11
2021-11-12 22:48:00,,0830.9,4.99,0.00,27.0,26.3,00.0,35.9,28.8,10.5,0000.0,0013.85,0004.18,0003.12
2021-11-12 22:49:00,,0830.9,5.00,0.00,27.0,26.3,00.0,35.9,28.9,10.5,0000.0,0014.11,0004.20,0003.11
2021-11-12 22:50:00,,0830.9,5.00,0.00,27.0,26.3,00.0,35.9,28.9,10.5,0000.0,0014.12,0004.24,0003.11
2021-11-12 22:51:00,,0830.8,5.00,0.00,27.0,26.3,00.0,35.9,28.9,10.5,0000.0,0014.01,0004.28,0003.13
2021-11-12 22:52:00,,0830.8,5.01,0.00,27.0,26.3,00.0,35.9,28.9,10.5,0000.0,0014.17,0004.32,0003.13
2021-11-12 22:53:00,,0830.8,5.00,0.00,27.0,26.3,00.0,35.9,28.9,10.5,0000.0,0015.23,0004.33,0003.13
2021-11-12 22:54:00,,0830.8,4.99,0.00,27.0,26.3,00.0,35.9,28.9,10.5,0000.0,0015.81,0004.37,0003.13
2021-11-12 22:55:00,,0830.8,4.99,0.00,27.1,26.4,00.0,35.9,28.9,10.5,0000.0,0017.25,0004.42,0003.14
2021-11-12 22:56:00,,0830.8,5.02,0.00,27.1,26.4,00.0,35.9,28.9,10.5,0000.0,0017.63,0004.41,0003.13
2021-11-12 22:57:00,,0830.8,4.99,0.00,27.1,26.4,00.0,36.0,28.9,10.5,0000.0,0017.40,0004.42,0003.14
2021-11-12 22:58:00,,0830.9,5.00,0.00,27.1,26.4,00.0,36.0,29.0,10.5,0000.0,0017.20,0004.44,0003.14
2021-11-12 22:59:00,,0830.9,5.01,0.00,27.1,26.4,00.0,36.0,29.0,10.5,0000.0,0016.73,0004.45,0003.14
